Location: *
(51.1248°S, 108.4023°W)
Time: 18:57:18
(UTC+00:00)

USA 281 - Pass Details

Date: 22 October 2021
Orbit: 1078 x 1081 km, 106.0° (Epoch: 25 November)

Event Time Altitude Azimuth Distance (km) Brightness Sun altitude
Exits shadow 04:59:48 - 325° (NW) 3,843 5.9 -22.7°
Reaches altitude 10° 05:03:57 10° 299° (WNW) 2,935 5.5 -23.0°
Maximum altitude 05:06:48 13° 273° (W) 2,720 5.6 -23.2°
Drops below altitude 10° 05:09:41 10° 246° (WSW) 2,950 6.2 -23.4°
Sets 05:14:02 0° 219° (SW) 3,917 7.5 -23.8°
